User: anonymous   Login
Location: Unspecified
(0.0000°N, 0.0000°E)
Time: 01:29:20
(UTC+00:00)
Language:

Picosat 3 - Orbit

View from above orbital plane
View from above orbital plane
View from above satellite
View from above satellite

Ground track
Ground track

The orbit data is extracted from the following two-line orbital elements,

1 26091U 00004J   17266.53601903  .00000340  00000-0  10623-3 0  9993
2 26091 100.1884  16.8301 0029608 167.4450 192.7481 14.48689520927875
Epoch (UTC): 23 September 2017 12:51:52
Eccentricity: 0.0029608
inclination: 100.1884°
perigee height: 709 km
apogee height: 751 km
right ascension of ascending node: 16.8301°
argument of perigee: 167.4450°
revolutions per day: 14.48689520
mean anomaly at epoch: 192.7481°
orbit number at epoch: 92787

The dashed part of the orbit path shows where the satellite is in the earth's shadow,  

DLR